Time,TemperatureF,DewpointF,PressureIn,WindDirection,WindDirectionDegrees,WindSpeedMPH,WindSpeedGustMPH,Humidity,HourlyPrecipIn,Conditions,Clouds,dailyrainin,SoftwareType,DateUTC
2013-01-06 00:14:00,30.5,28.0,30.28,SSW,212,0.0,0.0,89,0.00,,,0.00,weatherlink.com 1.10,2013-01-06 06:14:00,
2013-01-06 00:29:00,30.8,28.0,30.29,SSW,212,0.0,1.0,89,0.00,,,0.00,weatherlink.com 1.10,2013-01-06 06:29:00,
2013-01-06 00:44:00,30.8,28.0,30.29,SSW,212,0.0,0.0,89,0.00,,,0.00,weatherlink.com 1.10,2013-01-06 06:44:00,
2013-01-06 00:59:00,33.4,29.0,30.29,NW,316,2.0,7.0,84,0.00,,,0.00,weatherlink.com 1.10,2013-01-06 06:59:00,
2013-01-06 01:14:00,34.1,28.0,30.29,NW,314,4.0,7.0,77,0.00,,,0.00,weatherlink.com 1.10,2013-01-06 07:14:00,
2013-01-06 01:29:00,33.5,27.0,30.30,NW,310,0.0,4.0,76,0.00,,,0.00,weatherlink.com 1.10,2013-01-06 07:29:00,
2013-01-06 01:44:00,32.9,26.0,30.31,NW,310,0.0,0.0,76,0.00,,,0.00,weatherlink.com 1.10,2013-01-06 07:44:00,
2013-01-06 01:59:00,30.2,24.0,30.31,NW,310,0.0,0.0,78,0.00,,,0.00,weatherlink.com 1.10,2013-01-06 07:59:00,
2013-01-06 02:15:00,29.6,25.0,30.31,NW,310,0.0,0.0,83,0.00,,,0.00,weatherlink.com 1.10,2013-01-06 08:15:00,
2013-01-06 02:30:00,29.5,25.0,30.32,NW,310,0.0,0.0,82,0.00,,,0.00,weatherlink.com 1.10,2013-01-06 08:30:00,
2013-01-06 02:45:00,28.5,24.0,30.32,NW,310,0.0,0.0,83,0.00,,,0.00,weatherlink.com 1.10,2013-01-06 08:45:00,
2013-01-06 03:00:00,27.9,24.0,30.33,NW,307,0.0,0.0,84,0.00,,,0.00,weatherlink.com 1.10,2013-01-06 09:00:00,
2013-01-06 03:15:00,27.8,24.0,30.33,NW,307,0.0,0.0,85,0.00,,,0.00,weatherlink.com 1.10,2013-01-06 09:15:00,
2013-01-06 03:30:00,27.6,24.0,30.34,NW,307,0.0,0.0,87,0.00,,,0.00,weatherlink.com 1.10,2013-01-06 09:30:00,
2013-01-06 03:45:00,27.9,25.0,30.33,NW,307,0.0,0.0,87,0.00,,,0.00,weatherlink.com 1.10,2013-01-06 09:45:00,
2013-01-06 04:00:00,27.1,24.0,30.33,NW,307,0.0,0.0,87,0.00,,,0.00,weatherlink.com 1.10,2013-01-06 10:00:00,
2013-01-06 04:15:00,27.9,25.0,30.33,NW,307,0.0,0.0,87,0.00,,,0.00,weatherlink.com 1.10,2013-01-06 10:15:00,
2013-01-06 04:30:00,27.4,24.0,30.33,NW,307,0.0,0.0,86,0.00,,,0.00,weatherlink.com 1.10,2013-01-06 10:30:00,
2013-01-06 04:45:00,27.8,24.0,30.34,NW,307,0.0,0.0,85,0.00,,,0.00,weatherlink.com 1.10,2013-01-06 10:45:00,
2013-01-06 05:00:00,27.9,23.0,30.34,NW,307,0.0,2.0,83,0.00,,,0.00,weatherlink.com 1.10,2013-01-06 11:00:00,
2013-01-06 05:15:00,28.1,23.0,30.34,NW,307,0.0,0.0,82,0.00,,,0.00,weatherlink.com 1.10,2013-01-06 11:15:00,
2013-01-06 05:30:00,27.5,23.0,30.35,NW,307,0.0,0.0,83,0.00,,,0.00,weatherlink.com 1.10,2013-01-06 11:30:00,
2013-01-06 05:45:00,27.8,23.0,30.36,NW,307,0.0,0.0,83,0.00,,,0.00,weatherlink.com 1.10,2013-01-06 11:45:00,
2013-01-06 06:00:00,27.8,23.0,30.36,NW,307,0.0,0.0,82,0.00,,,0.00,weatherlink.com 1.10,2013-01-06 12:00:00,
2013-01-06 06:15:00,27.9,23.0,30.36,NW,307,0.0,0.0,82,0.00,,,0.00,weatherlink.com 1.10,2013-01-06 12:15:00,
2013-01-06 06:30:00,28.7,23.0,30.36,NW,307,0.0,3.0,79,0.00,,,0.00,weatherlink.com 1.10,2013-01-06 12:30:00,
2013-01-06 06:45:00,28.6,23.0,30.37,NW,307,0.0,0.0,79,0.00,,,0.00,weatherlink.com 1.10,2013-01-06 12:45:00,
2013-01-06 07:00:00,28.8,23.0,30.38,NW,307,0.0,0.0,78,0.00,,,0.00,weatherlink.com 1.10,2013-01-06 13:00:00,
2013-01-06 07:15:00,28.1,22.0,30.38,NW,307,0.0,0.0,79,0.00,,,0.00,weatherlink.com 1.10,2013-01-06 13:15:00,
2013-01-06 07:30:00,28.0,22.0,30.38,NW,307,0.0,0.0,79,0.00,,,0.00,weatherlink.com 1.10,2013-01-06 13:30:00,
2013-01-06 07:45:00,28.0,23.0,30.39,NW,307,0.0,0.0,80,0.00,,,0.00,weatherlink.com 1.10,2013-01-06 13:45:00,
2013-01-06 08:00:00,27.6,22.0,30.39,NW,307,0.0,0.0,80,0.00,,,0.00,weatherlink.com 1.10,2013-01-06 14:00:00,
2013-01-06 08:15:00,29.2,23.0,30.40,NW,307,0.0,0.0,78,0.00,,,0.00,weatherlink.com 1.10,2013-01-06 14:15:00,
2013-01-06 08:30:00,29.9,23.0,30.40,NW,308,3.0,5.0,76,0.00,,,0.00,weatherlink.com 1.10,2013-01-06 14:30:00,
2013-01-06 08:45:00,30.7,24.0,30.41,NNW,331,4.0,7.0,75,0.00,,,0.00,weatherlink.com 1.10,2013-01-06 14:45:00,
2013-01-06 09:00:00,31.6,24.0,30.41,NW,316,2.0,9.0,73,0.00,,,0.00,weatherlink.com 1.10,2013-01-06 15:00:00,
2013-01-06 09:15:00,32.5,24.0,30.41,North,5,7.0,10.0,72,0.00,,,0.00,weatherlink.com 1.10,2013-01-06 15:15:00,
2013-01-06 09:30:00,33.6,24.0,30.42,NNW,333,4.0,11.0,69,0.00,,,0.00,weatherlink.com 1.10,2013-01-06 15:30:00,
2013-01-06 09:45:00,34.3,24.0,30.43,NNW,332,3.0,13.0,66,0.00,,,0.00,weatherlink.com 1.10,2013-01-06 15:45:00,
2013-01-06 10:00:00,34.8,23.0,30.43,NNW,341,11.0,16.0,63,0.00,,,0.00,weatherlink.com 1.10,2013-01-06 16:00:00,
2013-01-06 10:15:00,35.0,23.0,30.43,NNW,337,7.0,14.0,62,0.00,,,0.00,weatherlink.com 1.10,2013-01-06 16:15:00,
2013-01-06 10:30:00,35.6,23.0,30.43,NW,305,5.0,12.0,61,0.00,,,0.00,weatherlink.com 1.10,2013-01-06 16:30:00,
2013-01-06 10:46:00,36.6,23.0,30.44,North,9,7.0,12.0,59,0.00,,,0.00,weatherlink.com 1.10,2013-01-06 16:46:00,
2013-01-06 11:01:00,37.1,23.0,30.43,NW,320,6.0,13.0,57,0.00,,,0.00,weatherlink.com 1.10,2013-01-06 17:01:00,
2013-01-06 11:16:00,37.9,23.0,30.43,North,355,8.0,14.0,55,0.00,,,0.00,weatherlink.com 1.10,2013-01-06 17:16:00,
2013-01-06 11:31:00,38.9,23.0,30.43,North,355,6.0,12.0,54,0.00,,,0.00,weatherlink.com 1.10,2013-01-06 17:31:00,
2013-01-06 11:46:00,39.6,23.0,30.41,North,5,5.0,10.0,51,0.00,,,0.00,weatherlink.com 1.10,2013-01-06 17:46:00,
2013-01-06 12:01:00,39.8,22.0,30.41,NW,313,5.0,12.0,50,0.00,,,0.00,weatherlink.com 1.10,2013-01-06 18:01:00,
2013-01-06 12:16:00,41.0,23.0,30.41,NNW,342,7.0,9.0,49,0.00,,,0.00,weatherlink.com 1.10,2013-01-06 18:16:00,
2013-01-06 12:31:00,41.4,22.0,30.40,NNW,330,10.0,12.0,47,0.00,,,0.00,weatherlink.com 1.10,2013-01-06 18:31:00,
2013-01-06 12:46:00,42.8,24.0,30.40,North,5,5.0,9.0,47,0.00,,,0.00,weatherlink.com 1.10,2013-01-06 18:46:00,
2013-01-06 13:01:00,42.6,23.0,30.38,NW,309,4.0,13.0,46,0.00,,,0.00,weatherlink.com 1.10,2013-01-06 19:01:00,
2013-01-06 13:16:00,43.3,23.0,30.37,NW,318,6.0,8.0,45,0.00,,,0.00,weatherlink.com 1.10,2013-01-06 19:16:00,
2013-01-06 13:31:00,43.6,23.0,30.37,North,355,3.0,10.0,44,0.00,,,0.00,weatherlink.com 1.10,2013-01-06 19:31:00,
2013-01-06 13:46:00,44.3,23.0,30.37,NW,309,6.0,9.0,43,0.00,,,0.00,weatherlink.com 1.10,2013-01-06 19:46:00,
2013-01-06 14:01:00,44.3,23.0,30.36,NW,319,1.0,9.0,43,0.00,,,0.00,weatherlink.com 1.10,2013-01-06 20:01:00,
2013-01-06 14:16:00,45.2,23.0,30.36,North,360,0.0,8.0,42,0.00,,,0.00,weatherlink.com 1.10,2013-01-06 20:16:00,
2013-01-06 14:31:00,45.0,22.0,30.36,North,11,2.0,9.0,41,0.00,,,0.00,weatherlink.com 1.10,2013-01-06 20:31:00,
2013-01-06 14:46:00,44.7,22.0,30.36,NNE,15,0.0,8.0,41,0.00,,,0.00,weatherlink.com 1.10,2013-01-06 20:46:00,
2013-01-06 15:01:00,45.4,22.0,30.36,NNE,31,0.0,7.0,40,0.00,,,0.00,weatherlink.com 1.10,2013-01-06 21:01:00,
2013-01-06 15:16:00,45.9,23.0,30.36,NNW,344,3.0,7.0,40,0.00,,,0.00,weatherlink.com 1.10,2013-01-06 21:16:00,
2013-01-06 15:31:00,45.7,22.0,30.36,North,9,5.0,8.0,40,0.00,,,0.00,weatherlink.com 1.10,2013-01-06 21:31:00,
2013-01-06 15:46:00,45.6,23.0,30.36,ENE,59,2.0,9.0,41,0.00,,,0.00,weatherlink.com 1.10,2013-01-06 21:46:00,
2013-01-06 16:01:00,45.5,23.0,30.36,North,349,4.0,6.0,41,0.00,,,0.00,weatherlink.com 1.10,2013-01-06 22:01:00,
2013-01-06 16:16:00,45.2,23.0,30.36,NNW,348,4.0,5.0,41,0.00,,,0.00,weatherlink.com 1.10,2013-01-06 22:16:00,
2013-01-06 16:31:00,45.1,23.0,30.36,North,355,0.0,5.0,42,0.00,,,0.00,weatherlink.com 1.10,2013-01-06 22:31:00,
2013-01-06 16:46:00,44.7,23.0,30.36,NNW,332,0.0,2.0,42,0.00,,,0.00,weatherlink.com 1.10,2013-01-06 22:46:00,
2013-01-06 17:01:00,44.2,22.0,30.36,NNW,332,0.0,0.0,42,0.00,,,0.00,weatherlink.com 1.10,2013-01-06 23:01:00,
2013-01-06 17:16:00,43.3,23.0,30.36,NNW,332,0.0,0.0,44,0.00,,,0.00,weatherlink.com 1.10,2013-01-06 23:16:00,
2013-01-06 17:31:00,42.6,22.0,30.36,NNW,332,0.0,0.0,45,0.00,,,0.00,weatherlink.com 1.10,2013-01-06 23:31:00,
2013-01-06 17:46:00,41.8,22.0,30.36,NNW,332,0.0,0.0,46,0.00,,,0.00,weatherlink.com 1.10,2013-01-06 23:46:00,
2013-01-06 18:01:00,40.8,22.0,30.36,North,351,0.0,0.0,48,0.00,,,0.00,weatherlink.com 1.10,2013-01-07 00:01:00,
2013-01-06 18:16:00,40.0,22.0,30.36,North,351,0.0,0.0,49,0.00,,,0.00,weatherlink.com 1.10,2013-01-07 00:16:00,
2013-01-06 18:31:00,39.1,22.0,30.36,North,351,0.0,0.0,51,0.00,,,0.00,weatherlink.com 1.10,2013-01-07 00:31:00,
2013-01-06 18:46:00,39.2,22.0,30.36,North,351,0.0,0.0,50,0.00,,,0.00,weatherlink.com 1.10,2013-01-07 00:46:00,
2013-01-06 19:01:00,39.1,22.0,30.36,North,351,0.0,0.0,50,0.00,,,0.00,weatherlink.com 1.10,2013-01-07 01:01:00,
2013-01-06 19:16:00,37.0,22.0,30.37,North,351,0.0,0.0,54,0.00,,,0.00,weatherlink.com 1.10,2013-01-07 01:16:00,
2013-01-06 19:31:00,37.2,21.0,30.37,North,351,0.0,0.0,53,0.00,,,0.00,weatherlink.com 1.10,2013-01-07 01:31:00,
2013-01-06 19:46:00,36.2,21.0,30.36,North,351,0.0,0.0,55,0.00,,,0.00,weatherlink.com 1.10,2013-01-07 01:46:00,
2013-01-06 20:01:00,37.4,22.0,30.36,North,351,0.0,0.0,53,0.00,,,0.00,weatherlink.com 1.10,2013-01-07 02:01:00,
2013-01-06 20:16:00,37.7,22.0,30.36,North,351,0.0,0.0,53,0.00,,,0.00,weatherlink.com 1.10,2013-01-07 02:16:00,
2013-01-06 20:31:00,37.6,22.0,30.36,North,351,0.0,0.0,53,0.00,,,0.00,weatherlink.com 1.10,2013-01-07 02:31:00,
2013-01-06 20:46:00,37.5,22.0,30.36,North,351,0.0,0.0,54,0.00,,,0.00,weatherlink.com 1.10,2013-01-07 02:46:00,
2013-01-06 21:01:00,36.9,21.0,30.36,North,351,0.0,0.0,54,0.00,,,0.00,weatherlink.com 1.10,2013-01-07 03:01:00,
2013-01-06 21:16:00,35.6,22.0,30.36,North,351,0.0,0.0,57,0.00,,,0.00,weatherlink.com 1.10,2013-01-07 03:16:00,
2013-01-06 21:31:00,35.4,21.0,30.36,North,351,0.0,0.0,57,0.00,,,0.00,weatherlink.com 1.10,2013-01-07 03:31:00,
2013-01-06 21:46:00,34.5,21.0,30.36,North,355,0.0,1.0,59,0.00,,,0.00,weatherlink.com 1.10,2013-01-07 03:46:00,
2013-01-06 22:01:00,34.5,21.0,30.36,North,355,0.0,0.0,58,0.00,,,0.00,weatherlink.com 1.10,2013-01-07 04:01:00,
2013-01-06 22:16:00,34.7,21.0,30.36,East,87,0.0,3.0,58,0.00,,,0.00,weatherlink.com 1.10,2013-01-07 04:16:00,
2013-01-06 22:31:00,34.4,21.0,30.36,East,87,0.0,2.0,59,0.00,,,0.00,weatherlink.com 1.10,2013-01-07 04:31:00,
2013-01-06 22:46:00,34.8,21.0,30.36,East,87,0.0,0.0,57,0.00,,,0.00,weatherlink.com 1.10,2013-01-07 04:46:00,
2013-01-06 23:02:00,34.1,21.0,30.36,East,87,0.0,0.0,60,0.00,,,0.00,weatherlink.com 1.10,2013-01-07 05:02:00,
2013-01-06 23:16:00,33.4,21.0,30.36,East,87,0.0,3.0,61,0.00,,,0.00,weatherlink.com 1.10,2013-01-07 05:16:00,
2013-01-06 23:31:00,32.4,21.0,30.36,East,87,0.0,0.0,63,0.00,,,0.00,weatherlink.com 1.10,2013-01-07 05:31:00,
2013-01-06 23:46:00,30.9,21.0,30.36,East,87,0.0,0.0,66,0.00,,,0.00,weatherlink.com 1.10,2013-01-07 05:46:00,